CW1490 Weather Reports


time (UTC)temp
C
wind
direction
speed
KPH
gust
KPH
rain 1hr
cm
rain 24hr
cm
rain mn
cm
humidity
%
barometer
mb
20260902230511 20 247 1.6 6.4 0.00 0.05 0.00 85 1019.9
20260902230016 20 196 3.2 6.4 0.00 0.05 0.00 85 1019.9
20260902225510 20 190 1.6 11.3 0.00 0.05 0.00 85 1020.0
20260902225013 20 221 1.6 11.3 0.00 0.05 0.00 85 1020.2
20260902224524 20 207 4.8 9.7 0.00 0.05 0.00 85 1020.3
20260902224012 21 165 4.8 8.0 0.00 0.05 0.00 85 1020.4
20260902223502 21 178 1.6 4.8 0.00 0.05 0.00 85 1020.5
20260902223009 21 334 1.6 3.2 0.00 0.05 0.00 84 1020.5
20260902222502 21 161 0.0 6.4 0.00 0.05 0.00 84 1020.5
20260902222004 21 238 1.6 6.4 0.00 0.05 0.00 84 1020.5
20260902221508 21 137 3.2 6.4 0.00 0.05 0.00 84 1020.4
20260902221003 21 178 1.6 6.4 0.00 0.05 0.00 83 1020.6
20260902220507 21 186 3.2 6.4 0.00 0.05 0.00 83 1020.6
20260902220015 21 163 3.2 6.4 0.00 0.05 0.00 83 1020.6
20260902215508 21 178 1.6 6.4 0.00 0.05 0.00 84 1020.6
20260902215010 21 221 1.6 8.0 0.00 0.05 0.00 84 1020.5
20260902214546 21 137 1.6 8.0 0.00 0.05 0.00 84 1020.3
20260902214012 21 153 3.2 6.4 0.00 0.05 0.00 84 1020.3
20260902213513 21 178 0.0 4.8 0.00 0.05 0.00 84 1020.5
20260902213026 21 178 1.6 4.8 0.00 0.05 0.00 84 1020.5
20260902212517 21 334 1.6 4.8 0.00 0.05 0.00 84 1020.4
20260902212017 21 178 0.0 6.4 0.00 0.05 0.00 83 1020.4
20260902211531 21 205 3.2 6.4 0.00 0.05 0.00 83 1020.3
20260902211004 21 178 1.6 4.8 0.00 0.05 0.00 83 1020.3
20260902210503 21 178 1.6 6.4 0.00 0.05 0.00 82 1020.4
20260902210013 21 205 0.0 6.4 0.00 0.05 0.00 82 1020.4
20260902205505 21 227 1.6 6.4 0.00 0.05 0.00 82 1020.4
20260902205007 21 193 3.2 6.4 0.00 0.05 0.00 83 1020.4
20260902204514 21 205 1.6 4.8 0.00 0.05 0.00 80 1020.4
20260902204014 21 221 0.0 6.4 0.00 0.05 0.00 81 1020.4
20260902203512 21 72 0.0 9.7 0.00 0.05 0.00 81 1020.3
20260902203021 21 171 3.2 9.7 0.00 0.05 0.00 81 1020.2
20260902202517 21 213 1.6 6.4 0.00 0.05 0.00 80 1020.2
20260902202015 21 193 3.2 8.0 0.00 0.05 0.00 81 1020.3
20260902201536 21 236 3.2 8.0 0.00 0.05 0.00 80 1020.3
20260902201012 21 225 4.8 6.4 0.00 0.05 0.00 81 1020.6
20260902200514 21 225 0.0 8.0 0.00 0.05 0.00 81 1020.6
20260902200008 21 188 4.8 8.0 0.00 0.05 0.00 80 1020.9
20260902195507 21 265 1.6 6.4 0.00 0.05 0.00 79 1021.0
20260902195005 21 205 3.2 11.3 0.00 0.05 0.00 79 1021.0
20260902194517 21 212 3.2 14.5 0.00 0.05 0.00 79 1020.9
20260902194009 21 243 8.0 14.5 0.00 0.05 0.00 78 1020.9
20260902193510 21 238 3.2 12.9 0.00 0.05 0.00 79 1020.8
20260902193022 21 178 8.0 16.1 0.00 0.05 0.00 77 1020.9
20260902192508 21 211 8.0 16.1 0.00 0.05 0.00 78 1020.9
20260902192016 21 187 4.8 12.9 0.00 0.05 0.00 78 1020.9
20260902191527 21 195 4.8 14.5 0.00 0.05 0.00 79 1020.9
20260902191012 21 231 6.4 16.1 0.00 0.05 0.00 78 1021.2
20260902190515 21 334 4.8 16.1 0.00 0.05 0.00 79 1021.2
20260902190029 21 212 3.2 8.0 0.00 0.05 0.00 79 1021.2
20260902185516 21 265 3.2 8.0 0.00 0.05 0.00 79 1021.3
20260902185019 21 171 3.2 6.4 0.00 0.05 0.00 78 1021.4
20260902184512 21 209 0.0 4.8 0.00 0.05 0.00 79 1021.6
20260902184007 21 178 1.6 8.0 0.00 0.05 0.00 79 1021.5
20260902183507 21 123 3.2 9.7 0.00 0.05 0.00 79 1021.5
20260902183018 21 209 3.2 9.7 0.00 0.05 0.00 78 1021.5
20260902182509 21 265 1.6 8.0 0.00 0.05 0.00 79 1021.5
20260902182008 21 257 3.2 8.0 0.00 0.05 0.00 79 1021.4
20260902181523 21 201 3.2 9.7 0.00 0.05 0.00 80 1021.4
20260902181013 21 319 1.6 9.7 0.00 0.05 0.00 79 1021.4
20260902180521 21 252 3.2 11.3 0.00 0.05 0.00 79 1021.3
20260902180031 21 205 6.4 16.1 0.00 0.08 0.00 78 1021.4
20260902175518 21 212 3.2 17.7 0.00 0.08 0.00 79 1021.5
20260902175017 21 190 8.0 17.7 0.00 0.08 0.00 79 1021.5
20260902174543 21 208 8.0 17.7 0.00 0.08 0.00 79 1021.4
20260902174013 21 186 4.8 11.3 0.00 0.10 0.00 80 1021.3
20260902173516 21 234 4.8 12.9 0.00 0.10 0.00 80 1021.4
20260902173032 20 236 6.4 12.9 0.00 0.10 0.00 79 1021.5
20260902172511 20 198 1.6 9.7 0.00 0.10 0.00 80 1021.6
20260902172013 20 186 3.2 9.7 0.00 0.10 0.00 79 1021.7
20260902171517 20 232 3.2 11.3 0.00 0.13 0.00 79 1021.6
20260902171011 20 85 4.8 11.3 0.00 0.13 0.00 80 1021.6
20260902170509 20 165 3.2 16.1 0.00 0.13 0.00 80 1021.7
20260902170033 20 194 8.0 16.1 0.00 0.13 0.00 80 1021.7
20260902165512 20 225 8.0 12.9 0.00 0.13 0.00 81 1021.9
20260902165015 20 227 4.8 11.3 0.00 0.13 0.00 81 1021.9
20260902164543 20 178 4.8 11.3 0.00 0.13 0.00 80 1021.9
20260902164003 20 227 6.4 12.9 0.00 0.13 0.00 81 1021.9
20260902163503 20 205 8.0 12.9 0.00 0.15 0.00 81 1022.0
20260902163009 20 161 4.8 11.3 0.00 0.15 0.00 81 1022.0
20260902162504 20 178 1.6 12.9 0.00 0.15 0.00 81 1021.9
20260902162008 20 213 6.4 12.9 0.00 0.15 0.00 82 1022.0
20260902161523 20 124 4.8 16.1 0.00 0.15 0.00 81 1022.1
20260902161020 20 309 4.8 16.1 0.00 0.18 0.00 82 1022.1
20260902160513 20 238 4.8 12.9 0.00 0.20 0.00 82 1022.0
20260902160033 20 202 8.0 12.9 0.00 0.23 0.00 82 1022.2
20260902155510 20 249 3.2 8.0 0.00 0.25 0.00 82 1022.3
20260902155014 20 165 3.2 8.0 0.00 0.25 0.00 83 1022.3
20260902154529 19 196 3.2 8.0 0.00 0.25 0.00 84 1022.4
20260902154012 19 200 3.2 8.0 0.00 0.28 0.00 82 1022.5
20260902153515 19 200 3.2 11.3 0.00 0.30 0.00 83 1022.5
20260902153033 19 221 6.4 11.3 0.00 0.36 0.00 83 1022.7
20260902152516 19 265 3.2 12.9 0.00 0.41 0.00 84 1022.5
20260902152006 19 169 6.4 12.9 0.00 0.41 0.00 83 1022.6
20260902151512 19 236 4.8 8.0 0.00 0.41 0.00 84 1022.7
20260902151005 19 171 4.8 9.7 0.00 0.41 0.00 84 1022.8
20260902150510 19 217 3.2 9.7 0.00 0.41 0.00 84 1022.9
20260902150033 19 200 6.4 9.7 0.00 0.41 0.00 84 1022.9
20260902145511 19 221 3.2 9.7 0.00 0.41 0.00 84 1022.9
20260902145015 19 119 1.6 9.7 0.00 0.41 0.00 84 1023.0
20260902144529 19 255 3.2 6.4 0.00 0.41 0.00 84 1022.8
20260902144014 19 178 3.2 12.9 0.00 0.41 0.00 85 1022.8
20260902143514 19 146 3.2 14.5 0.00 0.41 0.00 84 1022.8
20260902143030 19 279 4.8 14.5 0.00 0.41 0.00 84 1022.7
20260902142516 19 294 6.4 14.5 0.00 0.41 0.00 83 1022.7
20260902142013 19 219 6.4 14.5 0.00 0.41 0.00 84 1022.7
20260902141535 19 203 4.8 14.5 0.00 0.41 0.00 84 1022.6
20260902141018 19 237 9.7 14.5 0.00 0.41 0.00 83 1022.5
20260902140507 19 236 8.0 17.7 0.00 0.41 0.00 83 1022.5
20260902140017 18 242 9.7 17.7 0.00 0.41 0.00 84 1022.5
20260902135514 18 223 4.8 11.3 0.00 0.41 0.00 85 1022.4
20260902135011 18 221 4.8 11.3 0.00 0.41 0.00 85 1022.5
20260902134523 18 250 6.4 11.3 0.00 0.41 0.00 86 1022.4
20260902134012 18 51 1.6 9.7 0.00 0.41 0.00 86 1022.6
20260902133519 18 196 3.2 9.7 0.00 0.41 0.00 87 1022.4
20260902133033 18 171 3.2 16.1 0.00 0.41 0.00 85 1022.3
20260902132515 18 242 3.2 16.1 0.00 0.41 0.00 86 1022.0
20260902132016 18 196 6.4 12.9 0.00 0.41 0.00 86 1022.0
20260902131528 18 231 3.2 8.0 0.00 0.41 0.00 89 1022.1
20260902131016 18 205 3.2 8.0 0.00 0.41 0.00 89 1022.0
20260902130516 18 221 3.2 8.0 0.00 0.41 0.00 89 1022.1
20260902130033 18 9 3.2 6.4 0.00 0.41 0.00 90 1022.1
20260902125520 18 212 3.2 6.4 0.00 0.41 0.00 90 1022.1
20260902125017 17 221 1.6 6.4 0.00 0.41 0.00 90 1022.2
20260902124518 18 205 3.2 6.4 0.00 0.41 0.00 91 1022.2
20260902124008 17 205 1.6 6.4 0.00 0.41 0.00 91 1022.2
20260902123511 17 193 3.2 8.0 0.00 0.41 0.00 91 1022.1
20260902123026 17 137 1.6 8.0 0.00 0.41 0.00 92 1022.1
20260902122514 17 232 1.6 3.2 0.00 0.41 0.00 93 1022.2
20260902122011 17 9 0.0 3.2 0.00 0.41 0.00 93 1022.2
20260902121527 17 153 0.0 4.8 0.00 0.41 0.00 94 1022.1
20260902121017 17 205 1.6 4.8 0.00 0.41 0.00 94 1022.0
20260902120516 17 102 0.0 4.8 0.00 0.43 0.00 94 1022.1
20260902120033 17 254 1.6 3.2 0.00 0.43 0.00 95 1022.2
20260902115521 17 221 0.0 3.2 0.00 0.43 0.00 94 1022.2
20260902115016 17 67 0.0 3.2 0.00 0.43 0.00 95 1022.3
20260902114539 17 51 1.6 3.2 0.00 0.46 0.00 94 1022.2
20260902114014 17 205 0.0 4.8 0.00 0.46 0.00 95 1022.2
20260902113519 16 205 1.6 4.8 0.00 0.48 0.00 95 1022.2
20260902113022 16 221 1.6 4.8 0.00 0.51 0.00 94 1022.2
20260902112513 16 51 1.6 6.4 0.00 0.53 0.00 94 1022.3
20260902112013 16 221 1.6 6.4 0.00 0.58 0.00 94 1022.5
20260902111524 16 51 1.6 4.8 0.00 0.64 0.00 94 1022.5
20260902111019 16 214 1.6 3.2 0.00 0.66 0.00 94 1022.4
20260902110513 16 193 1.6 3.2 0.00 0.71 0.00 94 1022.3
20260902110028 16 178 0.0 3.2 0.00 0.76 0.00 94 1022.4
20260902105516 16 178 0.0 3.2 0.00 0.79 0.00 94 1022.3
20260902105021 16 51 0.0 3.2 0.00 0.81 0.00 94 1022.3
20260902104539 16 221 0.0 3.2 0.00 0.86 0.00 94 1022.2
20260902104019 16 238 0.0 3.2 0.00 0.89 0.00 94 1022.1
20260902103524 16 196 1.6 3.2 0.00 0.91 0.00 94 1022.1
20260902103032 16 238 0.0 3.2 0.00 0.94 0.00 94 1022.2
20260902102517 16 238 0.0 3.2 0.00 0.94 0.00 94 1022.1
20260902102019 16 265 0.0 3.2 0.00 0.94 0.00 94 1022.0
20260902101537 16 238 0.0 3.2 0.00 0.97 0.00 94 1022.0
20260902101016 16 9 0.0 3.2 0.00 0.97 0.00 94 1021.9
20260902100503 16 291 0.0 3.2 0.00 0.97 0.00 94 1021.8
20260902100007 16 9 0.0 3.2 0.00 0.97 0.00 94 1021.7
20260902095505 16 334 0.0 3.2 0.00 0.97 0.00 94 1021.8
20260902095004 16 51 0.0 1.6 0.00 0.97 0.00 94 1021.6
20260902094510 16 221 0.0 1.6 0.00 0.97 0.00 94 1021.7
20260902094007 16 9 0.0 4.8 0.00 0.97 0.00 94 1021.7
20260902093508 16 51 0.0 4.8 0.00 0.97 0.00 94 1021.7
20260902093024 16 9 1.6 3.2 0.00 0.97 0.00 94 1021.7
20260902092507 16 41 1.6 4.8 0.00 0.97 0.00 94 1021.7
20260902092011 16 9 1.6 4.8 0.00 0.97 0.00 94 1021.6
20260902091526 17 93 0.0 3.2 0.00 0.97 0.00 94 1021.6
20260902091012 16 265 0.0 1.6 0.00 0.97 0.00 94 1021.6
20260902090503 17 93 0.0 1.6 0.00 0.97 0.00 94 1021.4
20260902090005 17 265 0.0 1.6 0.00 0.97 0.00 94 1021.4
20260902085502 17 265 0.0 4.8 0.00 0.97 0.00 94 1021.4
20260902085004 17 265 0.0 4.8 0.00 0.97 0.00 94 1021.3
20260902084507 17 316 1.6 4.8 0.00 0.97 0.00 94 1021.2
20260902084004 17 338 1.6 4.8 0.00 0.97 0.00 94 1021.1
20260902083504 17 44 0.0 3.2 0.00 0.97 0.00 94 1021.2
20260902083010 17 51 0.0 3.2 0.00 0.97 0.00 94 1021.1
20260902082506 17 137 0.0 3.2 0.00 0.97 0.00 94 1021.2
20260902082009 17 51 0.0 3.2 0.00 0.97 0.00 94 1021.3
20260902081528 17 93 0.0 3.2 0.00 0.97 0.00 94 1021.2
20260902081017 17 216 0.0 3.2 0.00 0.97 0.00 94 1021.2
20260902080513 17 232 1.6 4.8 0.00 0.97 0.00 94 1021.2
20260902080027 17 232 1.6 4.8 0.00 0.97 0.00 94 1021.3
20260902075515 17 165 1.6 6.4 0.00 0.97 0.00 94 1021.3
20260902075002 17 178 1.6 6.4 0.00 0.97 0.00 94 1021.4
20260902074507 17 51 1.6 4.8 0.00 0.97 0.00 94 1021.4
20260902074003 17 221 1.6 3.2 0.00 0.97 0.00 94 1021.4
20260902073506 17 51 0.0 3.2 0.00 0.97 0.00 94 1021.3
20260902073010 17 93 1.6 3.2 0.00 0.97 0.00 94 1021.3
20260902072508 17 93 0.0 3.2 0.00 0.97 0.00 94 1021.4
20260902072005 17 265 0.0 3.2 0.00 0.97 0.00 94 1021.3
20260902071514 17 298 0.0 3.2 0.00 0.97 0.00 94 1021.3
20260902071009 17 265 0.0 3.2 0.00 0.97 0.00 94 1021.3
20260902070507 17 178 0.0 1.6 0.00 0.97 0.00 94 1021.4
20260902070009 17 178 0.0 3.2 0.00 0.97 0.00 94 1021.4
20260902065503 17 93 0.0 3.2 0.00 0.97 0.00 94 1021.5
20260902065014 17 67 0.0 3.2 0.00 0.97 0.00 94 1021.6
20260902064508 17 80 0.0 3.2 0.00 0.97 0.00 94 1021.6
20260902064002 17 51 0.0 3.2 0.00 0.97 0.00 94 1021.6
20260902063516 17 41 1.6 3.2 0.00 0.97 0.00 94 1021.5
20260902063008 17 51 0.0 3.2 0.00 0.97 0.00 94 1021.5
20260902062505 17 51 0.0 3.2 0.00 0.97 0.00 94 1021.5
20260902062006 17 265 0.0 3.2 0.00 0.97 0.00 94 1021.4
20260902061527 17 205 0.0 1.6 0.00 0.97 0.00 94 1021.4
20260902061010 17 9 0.0 1.6 0.00 0.97 0.00 94 1021.4
20260902060508 17 221 0.0 3.2 0.00 0.97 0.00 94 1021.4
20260902060018 17 238 0.0 3.2 0.00 0.97 0.00 94 1021.4
20260902055513 17 41 0.0 3.2 0.00 0.97 0.00 94 1021.3
20260902055013 17 44 1.6 3.2 0.00 0.97 0.00 94 1021.2
20260902054504 17 80 0.0 3.2 0.00 0.97 0.00 94 1021.2
20260902054003 17 93 0.0 3.2 0.00 0.97 0.00 94 1021.2
20260902053502 17 9 0.0 3.2 0.00 0.97 0.00 94 1021.1
20260902053005 17 93 0.0 3.2 0.00 0.97 0.00 94 1021.1
20260902052517 17 291 0.0 4.8 0.00 0.97 0.00 94 1021.1
20260902052003 17 238 1.6 6.4 0.00 0.97 0.00 94 1021.0
20260902051509 17 265 1.6 6.4 0.00 0.97 0.00 94 1021.0
20260902051007 17 209 3.2 4.8 0.00 0.97 0.00 94 1020.9
20260902050507 17 214 1.6 3.2 0.00 0.97 0.00 94 1020.7
20260902050016 17 221 1.6 3.2 0.00 0.97 0.00 94 1020.7
20260902045508 17 205 0.0 3.2 0.00 0.97 0.00 94 1020.7
20260902045011 17 212 1.6 3.2 0.00 0.97 0.00 94 1020.7
20260902044527 17 178 1.6 3.2 0.00 0.97 0.00 94 1020.6
20260902044013 17 212 0.0 3.2 0.00 0.97 0.00 94 1020.7
20260902043511 17 215 1.6 3.2 0.00 0.97 0.00 94 1020.6
20260902043042 17 165 0.0 3.2 0.00 0.97 0.00 94 1020.4
20260902042505 17 9 0.0 3.2 0.00 0.97 0.00 94 1020.5
20260902042002 17 9 0.0 4.8 0.00 0.97 0.00 94 1020.5
20260902041508 17 334 0.0 4.8 0.00 0.97 0.00 94 1020.5
20260902041003 17 9 1.6 4.8 0.00 0.97 0.00 93 1020.3
20260902040509 17 9 1.6 4.8 0.00 0.97 0.00 93 1020.2
20260902040014 17 9 1.6 3.2 0.00 0.97 0.00 93 1020.1
20260902035513 17 9 0.0 3.2 0.00 0.97 0.97 93 1020.0
20260902035008 17 9 1.6 3.2 0.00 0.97 0.97 93 1020.0
20260902034520 17 9 1.6 3.2 0.00 0.97 0.97 93 1019.9
20260902034012 17 9 0.0 4.8 0.00 0.97 0.97 93 1020.0
20260902033511 17 9 1.6 4.8 0.00 0.97 0.97 93 1020.0
20260902033027 17 41 1.6 4.8 0.00 0.97 0.97 93 1019.9
20260902032516 17 19 3.2 4.8 0.00 0.97 0.97 93 1019.9
20260902032021 17 265 0.0 3.2 0.00 0.97 0.97 93 1019.8
20260902031537 17 67 0.0 3.2 0.00 0.97 0.97 93 1019.9
20260902031006 17 34 1.6 4.8 0.00 0.97 0.97 93 1019.9
20260902030502 17 9 0.0 4.8 0.00 0.97 0.97 93 1020.0
20260902030008 17 265 0.0 4.8 0.00 0.97 0.97 93 1019.9
20260902025506 17 119 1.6 6.4 0.00 0.97 0.97 93 1019.9
20260902025010 17 247 3.2 6.4 0.00 0.97 0.97 93 1019.9
20260902024515 17 238 3.2 6.4 0.00 0.97 0.97 93 1019.9
20260902024007 17 221 0.0 4.8 0.00 0.97 0.97 93 1019.8
20260902023509 17 257 1.6 8.0 0.00 0.97 0.97 93 1019.9
20260902023032 17 325 1.6 11.3 0.00 0.97 0.97 93 1019.9
20260902022510 17 238 3.2 11.3 0.00 0.97 0.97 93 1019.8
20260902022015 17 212 6.4 11.3 0.00 0.97 0.97 93 1019.7
20260902021527 17 234 3.2 6.4 0.00 0.97 0.97 93 1019.9
20260902021013 17 153 0.0 4.8 0.00 0.97 0.97 93 1020.0
20260902020514 17 250 3.2 4.8 0.00 0.97 0.97 93 1020.0
20260902020032 17 250 1.6 4.8 0.00 0.97 0.97 93 1019.9
20260902015516 17 325 1.6 4.8 0.00 0.97 0.97 93 1020.0
20260902015006 17 309 0.0 3.2 0.00 0.97 0.97 93 1019.9
20260902014518 17 51 1.6 4.8 0.00 0.97 0.97 93 1019.8
20260902014008 17 178 0.0 4.8 0.00 0.97 0.97 93 1019.8
20260902013507 17 9 1.6 4.8 0.00 0.97 0.97 93 1019.9
20260902013020 17 51 1.6 4.8 0.00 0.97 0.97 93 1019.8
20260902012513 17 22 0.0 4.8 0.00 0.97 0.97 93 1019.8
20260902012013 17 34 0.0 4.8 0.00 0.97 0.97 93 1019.9
20260902011524 17 319 3.2 4.8 0.00 0.97 0.97 93 1019.8
20260902011013 17 51 0.0 6.4 0.00 0.97 0.97 93 1019.8
20260902010514 17 178 0.0 6.4 0.00 0.97 0.97 93 1019.7
20260902010028 17 298 0.0 4.8 0.00 0.97 0.97 93 1019.7
20260902005519 17 291 0.0 3.2 0.03 0.97 0.97 93 1019.7
20260902005016 17 9 0.0 6.4 0.03 0.97 0.97 93 1019.5
20260902004535 17 282 1.6 6.4 0.03 0.97 0.97 93 1019.4
20260902004018 17 319 1.6 4.8 0.03 0.97 0.97 93 1019.3
20260902003507 18 325 1.6 6.4 0.03 0.97 0.97 93 1019.2
20260902003013 18 178 0.0 6.4 0.03 0.97 0.97 93 1019.2
20260902002511 18 146 1.6 6.4 0.03 0.97 0.97 93 1019.1
20260902002009 18 309 1.6 6.4 0.03 0.97 0.97 93 1019.0
20260902001521 18 190 1.6 6.4 0.03 0.97 0.97 93 1018.9
20260902001013 18 158 3.2 6.4 0.03 0.97 0.97 93 1018.8
20260902000511 18 221 1.6 6.4 0.05 0.97 0.97 93 1018.6
20260902000031 18 221 1.6 6.4 0.05 0.97 0.97 93 1018.8
20260901235512 18 247 3.2 6.4 0.03 0.94 0.94 93 1018.7
20260901235019 18 229 0.0 4.8 0.03 0.94 0.94 93 1018.5
20260901234531 18 291 0.0 8.0 0.03 0.94 0.94 93 1018.5
20260901234015 18 238 1.6 8.0 0.03 0.94 0.94 93 1018.4
20260901233519 18 146 3.2 8.0 0.03 0.94 0.94 93 1018.3
20260901233031 18 249 3.2 4.8 0.03 0.94 0.94 93 1018.5
20260901232517 18 247 3.2 8.0 0.03 0.94 0.94 93 1018.5
20260901232017 18 217 4.8 8.0 0.03 0.94 0.94 93 1018.5
20260901231519 18 232 3.2 11.3 0.03 0.94 0.94 93 1018.5
20260901231012 18 234 6.4 12.9 0.03 0.94 0.94 93 1018.5